Time,TemperatureF,DewpointF,PressureIn,WindDirection,WindDirectionDegrees,WindSpeedMPH,WindSpeedGustMPH,Humidity,HourlyPrecipIn,Conditions,Clouds,dailyrainin,SolarRadiationWatts/m^2,SoftwareType,DateUTC
2013-03-15 00:02:00,62.0,57.0,-100.00,NNE,22,5.0,8.0,84,0.00,,,0.00,0.000000,,2013-03-15 10:02:00,
2013-03-15 00:12:00,62.0,57.0,-100.00,NNE,22,5.0,8.0,84,0.00,,,0.00,0.000000,,2013-03-15 10:12:00,
2013-03-15 00:23:00,62.0,57.0,-100.00,NNE,22,5.0,8.0,84,0.00,,,0.00,0.000000,,2013-03-15 10:23:00,
2013-03-15 00:32:00,62.0,57.0,-100.00,NNE,22,5.0,8.0,84,0.00,,,0.00,0.000000,,2013-03-15 10:32:00,
2013-03-15 01:02:00,60.0,56.0,-100.00,NNE,18,4.0,9.0,87,0.00,,,0.00,0.000000,,2013-03-15 11:02:00,
2013-03-15 01:12:00,60.0,56.0,-100.00,NNE,18,4.0,9.0,87,0.00,,,0.00,0.000000,,2013-03-15 11:12:00,
2013-03-15 01:22:00,60.0,56.0,-100.00,NNE,18,4.0,9.0,87,0.00,,,0.00,0.000000,,2013-03-15 11:22:00,
2013-03-15 01:32:00,60.0,56.0,-100.00,NNE,18,4.0,9.0,87,0.00,,,0.00,0.000000,,2013-03-15 11:32:00,
2013-03-15 02:02:00,61.0,58.0,-100.00,NNE,27,4.0,7.0,89,0.00,,,0.00,0.000000,,2013-03-15 12:02:00,
2013-03-15 02:12:00,61.0,58.0,-100.00,NNE,27,4.0,7.0,89,0.00,,,0.00,0.000000,,2013-03-15 12:12:00,
2013-03-15 02:22:00,61.0,58.0,-100.00,NNE,27,4.0,7.0,89,0.00,,,0.00,0.000000,,2013-03-15 12:22:00,
2013-03-15 02:32:00,61.0,58.0,-100.00,NNE,27,4.0,7.0,89,0.00,,,0.00,0.000000,,2013-03-15 12:32:00,
2013-03-15 03:02:00,61.0,57.0,-100.00,NNE,23,4.0,7.0,88,0.00,,,0.00,0.000000,,2013-03-15 13:02:00,
2013-03-15 03:12:00,61.0,57.0,-100.00,NNE,23,4.0,7.0,88,0.00,,,0.00,0.000000,,2013-03-15 13:12:00,
2013-03-15 03:22:00,61.0,57.0,-100.00,NNE,23,4.0,7.0,88,0.00,,,0.00,0.000000,,2013-03-15 13:22:00,
2013-03-15 03:32:00,61.0,57.0,-100.00,NNE,23,4.0,7.0,88,0.00,,,0.00,0.000000,,2013-03-15 13:32:00,
2013-03-15 04:02:00,60.0,57.0,-100.00,NNE,22,4.0,8.0,89,0.00,,,0.00,0.000000,,2013-03-15 14:02:00,
2013-03-15 04:12:00,60.0,57.0,-100.00,NNE,22,4.0,8.0,89,0.00,,,0.00,0.000000,,2013-03-15 14:12:00,
2013-03-15 04:22:00,60.0,57.0,-100.00,NNE,22,4.0,8.0,89,0.00,,,0.00,0.000000,,2013-03-15 14:22:00,
2013-03-15 04:32:00,60.0,57.0,-100.00,NNE,22,4.0,8.0,89,0.00,,,0.00,0.000000,,2013-03-15 14:32:00,
2013-03-15 05:02:00,60.0,57.0,-100.00,NNE,21,5.0,9.0,90,0.00,,,0.00,0.000000,,2013-03-15 15:02:00,
2013-03-15 05:12:00,60.0,57.0,-100.00,NNE,21,5.0,9.0,90,0.00,,,0.00,0.000000,,2013-03-15 15:12:00,
2013-03-15 05:22:00,60.0,57.0,-100.00,NNE,21,5.0,9.0,90,0.00,,,0.00,0.000000,,2013-03-15 15:22:00,
2013-03-15 05:32:00,60.0,57.0,-100.00,NNE,21,5.0,9.0,90,0.00,,,0.00,0.000000,,2013-03-15 15:32:00,
2013-03-15 06:02:00,61.0,57.0,-100.00,NNE,18,3.0,9.0,87,0.00,,,0.00,0.000000,,2013-03-15 16:02:00,
2013-03-15 06:12:00,61.0,57.0,-100.00,NNE,18,3.0,9.0,87,0.00,,,0.00,0.000000,,2013-03-15 16:12:00,
2013-03-15 06:22:00,61.0,57.0,-100.00,NNE,18,3.0,9.0,87,0.00,,,0.00,0.000000,,2013-03-15 16:22:00,
2013-03-15 06:32:00,61.0,57.0,-100.00,NNE,18,3.0,9.0,87,0.00,,,0.00,0.000000,,2013-03-15 16:32:00,
2013-03-15 07:02:00,61.0,56.0,-100.00,NE,46,3.0,7.0,83,0.00,,,0.00,0.000000,,2013-03-15 17:02:00,
2013-03-15 07:12:00,61.0,56.0,-100.00,NE,46,3.0,7.0,83,0.00,,,0.00,0.000000,,2013-03-15 17:12:00,
2013-03-15 07:22:00,61.0,56.0,-100.00,NE,46,3.0,7.0,83,0.00,,,0.00,0.000000,,2013-03-15 17:22:00,
2013-03-15 07:32:00,61.0,56.0,-100.00,NE,46,3.0,7.0,83,0.00,,,0.00,0.000000,,2013-03-15 17:32:00,
2013-03-15 08:02:00,61.0,56.0,-100.00,NNE,16,4.0,8.0,85,0.00,,,0.00,0.000000,,2013-03-15 18:02:00,
2013-03-15 08:12:00,61.0,56.0,-100.00,NNE,16,4.0,8.0,85,0.00,,,0.00,0.000000,,2013-03-15 18:12:00,
2013-03-15 08:22:00,61.0,56.0,-100.00,NNE,16,4.0,8.0,85,0.00,,,0.00,0.000000,,2013-03-15 18:22:00,
2013-03-15 08:32:00,61.0,56.0,-100.00,NNE,16,4.0,8.0,85,0.00,,,0.00,0.000000,,2013-03-15 18:32:00,
2013-03-15 09:02:00,72.0,56.0,-100.00,SSW,203,6.0,12.0,58,0.00,,,0.00,40.000000,,2013-03-15 19:02:00,
2013-03-15 09:12:00,72.0,56.0,-100.00,SSW,203,6.0,12.0,58,0.00,,,0.00,40.000000,,2013-03-15 19:12:00,
2013-03-15 09:22:00,72.0,56.0,-100.00,SSW,203,6.0,12.0,58,0.00,,,0.00,40.000000,,2013-03-15 19:22:00,
2013-03-15 09:31:00,72.0,56.0,-100.00,SSW,203,6.0,12.0,58,0.00,,,0.00,40.000000,,2013-03-15 19:31:00,
2013-03-15 10:02:00,72.0,56.0,-100.00,SSW,204,6.0,16.0,57,0.00,,,-99.99,309.000000,,2013-03-15 20:02:00,
2013-03-15 10:12:00,72.0,56.0,-100.00,SSW,204,6.0,16.0,57,0.00,,,-99.99,309.000000,,2013-03-15 20:12:00,
2013-03-15 10:22:00,72.0,56.0,-100.00,SSW,204,6.0,16.0,57,0.00,,,-99.99,309.000000,,2013-03-15 20:22:00,
2013-03-15 10:31:00,72.0,56.0,-100.00,SSW,204,6.0,16.0,57,0.00,,,-99.99,309.000000,,2013-03-15 20:31:00,
2013-03-15 11:02:00,73.0,57.0,-100.00,SSW,195,7.0,19.0,57,0.00,,,0.00,621.000000,,2013-03-15 21:02:00,
2013-03-15 11:12:00,73.0,57.0,-100.00,SSW,195,7.0,19.0,57,0.00,,,0.00,621.000000,,2013-03-15 21:12:00,
2013-03-15 11:22:00,73.0,57.0,-100.00,SSW,195,7.0,19.0,57,0.00,,,0.00,621.000000,,2013-03-15 21:22:00,
2013-03-15 11:32:00,73.0,57.0,-100.00,SSW,195,7.0,19.0,57,0.00,,,0.00,621.000000,,2013-03-15 21:32:00,
2013-03-15 12:03:00,74.0,59.0,-100.00,SSW,201,8.0,17.0,59,0.00,,,0.00,588.000000,,2013-03-15 22:03:00,
2013-03-15 12:13:00,74.0,59.0,-100.00,SSW,201,8.0,17.0,59,0.00,,,0.00,588.000000,,2013-03-15 22:13:00,
2013-03-15 12:22:00,74.0,59.0,-100.00,SSW,201,8.0,17.0,59,0.00,,,0.00,588.000000,,2013-03-15 22:22:00,
2013-03-15 12:32:00,74.0,59.0,-100.00,SSW,201,8.0,17.0,59,0.00,,,0.00,588.000000,,2013-03-15 22:32:00,
2013-03-15 13:02:00,73.0,58.0,-100.00,SSW,213,9.0,19.0,60,0.00,,,0.00,677.000000,,2013-03-15 23:02:00,
2013-03-15 13:12:00,73.0,58.0,-100.00,SSW,213,9.0,19.0,60,0.00,,,0.00,677.000000,,2013-03-15 23:12:00,
2013-03-15 13:22:00,73.0,58.0,-100.00,SSW,213,9.0,19.0,60,0.00,,,0.00,677.000000,,2013-03-15 23:22:00,
2013-03-15 13:32:00,73.0,58.0,-100.00,SSW,213,9.0,19.0,60,0.00,,,0.00,677.000000,,2013-03-15 23:32:00,
2013-03-15 14:02:00,71.0,59.0,-100.00,SSW,202,7.0,19.0,66,0.00,,,0.00,722.000000,,2013-03-16 00:02:00,
2013-03-15 14:12:00,71.0,59.0,-100.00,SSW,202,7.0,19.0,66,0.00,,,0.00,722.000000,,2013-03-16 00:12:00,
2013-03-15 14:22:00,71.0,59.0,-100.00,SSW,202,7.0,19.0,66,0.00,,,0.00,722.000000,,2013-03-16 00:22:00,
2013-03-15 14:32:00,71.0,59.0,-100.00,SSW,202,7.0,19.0,66,0.00,,,0.00,722.000000,,2013-03-16 00:32:00,
2013-03-15 15:02:00,69.0,61.0,-100.00,SW,223,6.0,20.0,76,0.00,,,0.00,449.000000,,2013-03-16 01:02:00,
2013-03-15 15:12:00,69.0,61.0,-100.00,SW,223,6.0,20.0,76,0.00,,,0.00,449.000000,,2013-03-16 01:12:00,
2013-03-15 15:21:00,69.0,61.0,-100.00,SW,223,6.0,20.0,76,0.00,,,0.00,449.000000,,2013-03-16 01:21:00,
2013-03-15 15:32:00,69.0,61.0,-100.00,SW,223,6.0,20.0,76,0.00,,,0.00,449.000000,,2013-03-16 01:32:00,
2013-03-15 16:02:00,66.0,58.0,-100.00,NNE,20,4.0,18.0,76,0.00,,,0.00,282.000000,,2013-03-16 02:02:00,
2013-03-15 16:12:00,66.0,58.0,-100.00,NNE,20,4.0,18.0,76,0.00,,,0.00,282.000000,,2013-03-16 02:12:00,
2013-03-15 16:22:00,66.0,58.0,-100.00,NNE,20,4.0,18.0,76,0.00,,,0.00,282.000000,,2013-03-16 02:22:00,
2013-03-15 16:32:00,66.0,58.0,-100.00,NNE,20,4.0,18.0,76,0.00,,,0.00,282.000000,,2013-03-16 02:32:00,
2013-03-15 17:02:00,69.0,58.0,-100.00,NNW,336,2.0,14.0,69,0.00,,,0.00,329.000000,,2013-03-16 03:02:00,
2013-03-15 17:12:00,69.0,58.0,-100.00,NNW,336,2.0,14.0,69,0.00,,,0.00,329.000000,,2013-03-16 03:12:00,
2013-03-15 17:21:00,69.0,58.0,-100.00,NNW,336,2.0,14.0,69,0.00,,,0.00,329.000000,,2013-03-16 03:21:00,
2013-03-15 17:32:00,69.0,58.0,-100.00,NNW,336,2.0,14.0,69,0.00,,,0.00,329.000000,,2013-03-16 03:32:00,
2013-03-15 18:02:00,69.0,57.0,-100.00,SSE,155,3.0,12.0,65,0.00,,,0.00,188.000000,,2013-03-16 04:02:00,
2013-03-15 18:12:00,69.0,57.0,-100.00,SSE,155,3.0,12.0,65,0.00,,,0.00,188.000000,,2013-03-16 04:12:00,
2013-03-15 18:22:00,69.0,57.0,-100.00,SSE,155,3.0,12.0,65,0.00,,,0.00,188.000000,,2013-03-16 04:22:00,
2013-03-15 18:32:00,69.0,57.0,-100.00,SSE,155,3.0,12.0,65,0.00,,,0.00,188.000000,,2013-03-16 04:32:00,
2013-03-15 19:02:00,66.0,56.0,-100.00,North,1,4.0,11.0,70,0.00,,,0.00,160.000000,,2013-03-16 05:02:00,
2013-03-15 19:12:00,66.0,56.0,-100.00,North,1,4.0,11.0,70,0.00,,,0.00,160.000000,,2013-03-16 05:12:00,
2013-03-15 19:21:00,66.0,56.0,-100.00,North,1,4.0,11.0,70,0.00,,,0.00,160.000000,,2013-03-16 05:21:00,
2013-03-15 19:32:00,66.0,56.0,-100.00,North,1,4.0,11.0,70,0.00,,,0.00,160.000000,,2013-03-16 05:32:00,
2013-03-15 20:02:00,67.0,58.0,-100.00,NNE,33,3.0,11.0,72,0.00,,,0.00,36.000000,,2013-03-16 06:02:00,
2013-03-15 20:12:00,67.0,58.0,-100.00,NNE,33,3.0,11.0,72,0.00,,,0.00,36.000000,,2013-03-16 06:12:00,
2013-03-15 20:21:00,67.0,58.0,-100.00,NNE,33,3.0,11.0,72,0.00,,,0.00,36.000000,,2013-03-16 06:21:00,
2013-03-15 20:32:00,67.0,58.0,-100.00,NNE,33,3.0,11.0,72,0.00,,,0.00,36.000000,,2013-03-16 06:32:00,
2013-03-15 21:02:00,64.0,58.0,-100.00,North,9,1.0,5.0,80,0.00,,,0.00,0.000000,,2013-03-16 07:02:00,
2013-03-15 21:12:00,64.0,58.0,-100.00,North,9,1.0,5.0,80,0.00,,,0.00,0.000000,,2013-03-16 07:12:00,
2013-03-15 21:22:00,64.0,58.0,-100.00,North,9,1.0,5.0,80,0.00,,,0.00,0.000000,,2013-03-16 07:22:00,
2013-03-15 21:32:00,64.0,58.0,-100.00,North,9,1.0,5.0,80,0.00,,,0.00,0.000000,,2013-03-16 07:32:00,
2013-03-15 22:02:00,64.0,60.0,-100.00,NNE,19,4.0,10.0,87,0.00,,,0.00,0.000000,,2013-03-16 08:02:00,
2013-03-15 22:12:00,64.0,60.0,-100.00,NNE,19,4.0,10.0,87,0.00,,,0.00,0.000000,,2013-03-16 08:12:00,
2013-03-15 22:22:00,64.0,60.0,-100.00,NNE,19,4.0,10.0,87,0.00,,,0.00,0.000000,,2013-03-16 08:22:00,
2013-03-15 22:32:00,64.0,60.0,-100.00,NNE,19,4.0,10.0,87,0.00,,,0.00,0.000000,,2013-03-16 08:32:00,
2013-03-15 23:01:00,65.0,59.0,-100.00,North,4,6.0,20.0,81,0.00,,,-99.99,0.000000,,2013-03-16 09:01:00,
2013-03-15 23:12:00,65.0,59.0,-100.00,North,4,6.0,20.0,81,0.00,,,-99.99,0.000000,,2013-03-16 09:12:00,
2013-03-15 23:22:00,65.0,59.0,-100.00,North,4,6.0,20.0,81,0.00,,,-99.99,0.000000,,2013-03-16 09:22:00,
2013-03-15 23:32:00,65.0,59.0,-100.00,North,4,6.0,20.0,81,0.00,,,-99.99,0.000000,,2013-03-16 09:32:00,